Time,B instrument,Bx,By,Bz,sigma B,Ion instrument,Status,Tp_par,Tp_perp,carrot,r_sun,clat,clong,earth_he_angle,n_p,vp_x,vp_y,vp_z,vth_p_par,vth_p_perp
1980-11-28 00:10:00,-1,nan,nan,nan,nan,1,4,nan,nan,1701,0.3461293,-5.0296011,27.768768,145.76096,nan,nan,nan,nan,nan,nan
1980-11-28 00:20:48,-1,nan,nan,nan,nan,1,4,nan,nan,1701,0.34606373,-5.0260439,27.703339,145.79317,nan,nan,nan,nan,nan,nan
1980-11-28 00:31:36,-1,nan,nan,nan,nan,1,3,nan,nan,1701,0.34599173,-5.022131,27.641113,145.8286,nan,366.436,77.8209,19.065,nan,nan
1980-11-28 00:42:24,-1,nan,nan,nan,nan,1,3,nan,nan,1701,0.34591967,-5.018218,27.574951,145.86401,nan,397.965,82.1951,45.8078,nan,nan
1980-11-28 01:04:00,-1,nan,nan,nan,nan,1,3,nan,nan,1701,0.34577566,-5.0103827,27.450531,145.93491,nan,340.983,-14.7605,-40.0818,nan,nan
1980-11-28 01:14:48,-1,nan,nan,nan,nan,1,3,nan,nan,1701,0.3457104,-5.0068026,27.385193,145.96721,nan,330.311,-10.8131,-26.4769,nan,nan
1980-11-28 01:25:36,-1,nan,nan,nan,nan,1,3,nan,nan,1701,0.34563863,-5.0028658,27.319153,146.00273,nan,329.072,-24.3828,-9.44385,nan,nan
1980-11-28 01:36:24,-1,nan,nan,nan,nan,1,4,nan,nan,1701,0.34556687,-4.9989281,27.257019,146.03825,nan,nan,nan,nan,nan,nan
1980-11-28 01:47:12,-1,nan,nan,nan,nan,1,3,nan,nan,1701,0.3454951,-4.9949903,27.194885,146.07378,nan,340.037,-29.9544,-26.4248,nan,nan
1980-11-28 01:58:00,-1,nan,nan,nan,nan,1,3,nan,nan,1701,0.34542328,-4.9910526,27.132751,146.1093,nan,325.967,-43.6063,7.55879,nan,nan
1980-11-28 02:08:48,-1,nan,nan,nan,nan,1,3,nan,nan,1701,0.34535825,-4.9874554,27.063568,146.14168,nan,323.193,-25.4105,-13.1866,nan,nan
1980-11-28 02:19:36,-1,nan,nan,nan,nan,1,3,nan,nan,1701,0.34528679,-4.9834929,27.001526,146.17729,nan,317.365,-33.0229,3.36342,nan,nan
1980-11-28 02:30:24,-1,nan,nan,nan,nan,1,3,nan,nan,1701,0.34521532,-4.9795313,26.939484,146.21292,nan,317.172,-19.1331,-5.62354,nan,nan
1980-11-28 02:41:12,-1,nan,nan,nan,nan,1,3,nan,nan,1701,0.34514385,-4.9755688,26.873535,146.24854,nan,348.757,-35.6305,-57.3145,nan,nan
1980-11-28 02:52:00,-1,nan,nan,nan,nan,1,3,nan,nan,1701,0.34507239,-4.9716072,26.811523,146.28416,nan,325.377,-11.0982,-12.525,nan,nan
1980-11-28 03:02:48,-1,nan,nan,nan,nan,1,3,nan,nan,1701,0.34500742,-4.9680004,26.746246,146.31656,nan,346.704,-12.0915,-61.4241,nan,nan
1980-11-28 03:13:36,-1,nan,nan,nan,nan,1,3,nan,nan,1701,0.34493625,-4.9640141,26.684326,146.35228,nan,325.563,-2.42465,-28.001,nan,nan
1980-11-28 03:24:24,-1,nan,nan,nan,nan,1,3,nan,nan,1701,0.34486502,-4.9600277,26.618469,146.388,nan,324.099,-22.9224,-31.0055,nan,nan
1980-11-28 03:57:42,-1,nan,nan,nan,nan,1,3,nan,nan,1701,0.3446514,-4.9480686,26.420959,146.49516,nan,353.637,56.983,-39.9067,nan,nan
1980-11-28 03:59:03,1,-29.45,30.975,-7.0625,4.22187,1,1,92282.6,189798.0,1701,0.34463847,-4.9473448,26.415741,146.50166,41.5312,361.953,74.2449,6.32503,39.0317,55.9762
1980-11-28 04:00:24,1,-34.7857,25.7857,-1.38571,2.41382,1,1,82703.7,219052.0,1701,0.34463203,-4.9469814,26.407257,146.50491,49.284,345.872,58.5348,4.32498,36.9505,60.1356
1980-11-28 04:00:44,1,-35.2429,25.2429,1.22857,2.30244,1,1,87111.3,187232.0,1701,0.34463197,-4.9469814,26.403351,146.50491,41.9843,336.057,43.9437,16.9845,37.9223,55.5965
1980-11-28 04:02:04,1,-31.2143,30.4143,-0.257143,2.00408,1,1,82494.8,191265.0,1701,0.3446191,-4.9462528,26.398132,146.51141,41.2562,351.888,59.5231,24.1602,36.9038,56.1922
1980-11-28 04:03:25,1,-25.3143,35.2429,-8.88571,2.81258,1,1,80893.7,240443.0,1701,0.34461266,-4.9458876,26.389679,146.51468,45.9297,360.528,67.6198,-8.04605,36.5439,63.0034
1980-11-28 04:04:46,1,-33.4429,21.5286,12.3714,4.06458,1,1,84194.2,270589.0,1701,0.34460622,-4.9455233,26.381226,146.51793,50.4695,343.59,32.1887,78.9996,37.282,66.8364
1980-11-28 04:07:28,1,-33.5429,7.84286,19.9571,10.2156,1,1,106575.0,218636.0,1701,0.34458691,-4.9444294,26.367554,146.52769,39.9354,367.001,16.4866,103.457,41.9454,60.0784
1980-11-28 04:11:31,1,-22.0714,3.22857,35.1857,1.15741,1,1,88494.0,159344.0,1701,0.3445611,-4.9429712,26.341522,146.54073,41.6863,381.391,-22.911,100.898,38.2221,51.2892
1980-11-28 04:15:34,1,-36.05,18.8375,16.9375,4.81323,1,1,97447.4,180053.0,1701,0.34453535,-4.9415121,26.319397,146.55376,49.5428,349.422,20.5781,59.5086,40.1091,54.5203
1980-11-28 04:16:55,1,-34.0125,26.625,11.05,3.42571,1,1,73705.5,187652.0,1701,0.34452885,-4.9411478,26.307007,146.55701,45.3799,347.496,36.5468,53.6985,34.8825,55.6589
1980-11-28 04:19:37,1,-36.7667,23.1,8.46667,0.50111,1,1,79200.8,178335.0,1701,0.34450954,-4.9400539,26.293335,146.56677,43.285,341.511,35.9973,37.9749,36.1595,54.2595
1980-11-28 04:26:21,-1,nan,nan,nan,nan,1,3,nan,nan,1701,0.34446442,-4.9375019,26.253632,146.58957,nan,385.87,-7.36758,22.878,nan,nan
1980-11-28 04:27:43,1,-36.275,12.475,17.95,1.59491,1,1,82962.8,151796.0,1701,0.34445798,-4.9371367,26.245178,146.59282,40.8639,336.898,13.7485,62.4814,37.0083,50.0597
1980-11-28 04:30:25,1,-37.3429,1.67143,18.0143,4.68127,1,1,98922.7,207453.0,1701,0.34443867,-4.9360428,26.231506,146.6026,41.1533,350.606,8.28328,82.1409,40.4116,58.5218
1980-11-28 04:33:24,-1,nan,nan,nan,nan,1,4,nan,nan,1701,0.3444193,-4.9349489,26.213928,146.61237,nan,nan,nan,nan,nan,nan
1980-11-28 04:34:45,1,-38.2714,13.9,16.4429,1.63757,1,1,81140.2,180409.0,1701,0.34441286,-4.9345846,26.205475,146.61562,42.3702,336.101,2.38331,58.8921,36.5996,54.5742
1980-11-28 04:36:06,1,-41.1429,9.45714,11.9286,4.22963,1,1,87816.9,148597.0,1701,0.34439999,-4.933856,26.200256,146.62213,40.2837,332.779,18.0741,53.0343,38.0756,49.5294
1980-11-28 04:37:27,1,-43.8,3.05,7.33333,2.06351,1,1,99216.4,175108.0,1701,0.34439355,-4.9334908,26.187897,146.62538,49.2482,330.53,-10.2136,54.8479,40.4715,53.7663
1980-11-28 04:38:31,1,-40.4333,3.28333,16.9,2.19627,1,1,85247.1,171190.0,1701,0.34438705,-4.9331264,26.18335,146.62865,43.83,334.699,-26.2621,67.3088,37.5144,53.1615
1980-11-28 04:39:52,1,-40.1571,-3.58571,18.2571,2.02565,1,1,88453.6,181615.0,1701,0.34438062,-4.9327612,26.174866,146.6319,48.891,339.166,-38.2944,67.7199,38.2134,54.7562
1980-11-28 04:41:13,1,-42.6714,-0.214286,14.1286,1.70617,1,1,83682.4,165296.0,1701,0.34436774,-4.9320326,26.169678,146.63841,44.5205,334.192,-24.1823,65.7153,37.1685,52.2383
1980-11-28 04:42:34,1,-42.05,6.3,15.1167,1.89839,1,1,89159.2,187709.0,1701,0.34436131,-4.9316673,26.157288,146.64166,48.9486,329.393,-1.45403,45.9553,38.3655,55.6673
1980-11-28 04:43:55,-1,nan,nan,nan,nan,1,4,nan,nan,1701,0.34435487,-4.931303,26.148834,146.64493,nan,nan,nan,nan,nan,nan
1980-11-28 04:45:16,1,-41.2333,21.8667,-1.56667,3.61063,1,1,86122.8,190915.0,1701,0.34434199,-4.9305735,26.143646,146.65144,49.176,333.929,38.3913,9.67972,37.7066,56.1407
1980-11-28 04:46:37,1,-38.6429,26.0286,-2.11429,2.01353,1,1,84893.6,171295.0,1701,0.3443355,-4.9302092,26.135162,146.65469,45.2646,337.807,43.4605,14.2356,37.4365,53.1778
1980-11-28 04:47:58,1,-38.0,25.8667,1.6,1.29701,1,1,87836.6,172446.0,1701,0.34432906,-4.9298449,26.126709,146.65796,45.2941,333.351,35.0323,24.8208,38.0799,53.3562
1980-11-28 04:49:19,1,-35.2625,29.375,-8.4125,3.43516,1,1,95815.4,177989.0,1701,0.34431618,-4.9291153,26.12149,146.66446,46.4316,340.222,47.9188,6.56009,39.7718,54.2069
1980-11-28 04:50:40,-1,nan,nan,nan,nan,1,4,nan,nan,1701,0.34430975,-4.928751,26.109131,146.66772,nan,nan,nan,nan,nan,nan
1980-11-28 04:52:01,1,-40.3714,-1.94286,17.2286,1.9707,1,1,92454.9,193138.0,1701,0.34429687,-4.9280214,26.103912,146.67422,50.3224,332.476,-27.702,66.1881,39.0682,56.4666
1980-11-28 04:53:22,1,-39.7286,2.27143,19.9429,3.00632,1,1,91071.5,154036.0,1701,0.34429038,-4.9276571,26.095459,146.67749,40.9953,345.481,-8.15393,85.9122,38.7748,50.4277
1980-11-28 04:54:43,-1,nan,nan,nan,nan,1,4,nan,nan,1701,0.34428394,-4.9272919,26.087006,146.68074,nan,nan,nan,nan,nan,nan
1980-11-28 04:56:04,-1,nan,nan,nan,nan,1,3,nan,nan,1701,0.34427106,-4.9265633,26.081787,146.68726,nan,330.067,-25.8901,66.624,nan,nan
1980-11-28 04:57:25,1,-44.9571,4.62857,7.98571,1.7337,1,1,90268.0,168848.0,1701,0.34426463,-4.926198,26.073334,146.69051,47.5209,321.376,-18.5551,44.0997,38.6033,52.7966
1980-11-28 05:04:09,-1,nan,nan,nan,nan,1,3,nan,nan,1701,0.34421962,-4.9236374,26.033661,146.71333,nan,343.135,18.302,75.6758,nan,nan
1980-11-28 05:06:51,1,-42.2667,23.1,-3.53333,0.333333,1,1,87770.9,182147.0,1701,0.34420675,-4.9229031,26.016754,146.71986,49.4379,329.759,30.8829,42.9378,38.0656,54.8363
1980-11-28 05:09:33,1,-38.4,27.8333,-11.3667,1.00222,1,1,91076.1,169487.0,1701,0.3441875,-4.9218035,25.999207,146.72966,48.6169,330.391,33.5817,17.8427,38.7757,52.8964
1980-11-28 05:09:34,1,-38.4,27.8333,-11.3667,1.00222,1,1,84814.8,186735.0,1701,0.3441875,-4.9218025,25.999207,146.72966,50.8056,335.951,42.2579,6.20174,37.4191,55.5227
1980-11-28 05:12:17,1,-38.1333,26.3333,-11.1667,3.34764,1,1,88689.0,164887.0,1701,0.34416825,-4.9207029,25.985565,146.73946,45.4561,340.429,48.0962,-1.43783,38.2642,52.1736
1980-11-28 05:14:59,1,-40.0333,23.7667,-4.06667,1.68127,1,1,94971.3,188649.0,1701,0.34415543,-4.9199686,25.968658,146.74599,51.0776,338.812,47.3594,42.3189,39.5962,55.8065
1980-11-28 05:17:41,1,-39.2667,20.9333,-17.6,1.94879,1,1,79317.3,174382.0,1701,0.34413618,-4.9188681,25.951111,146.75578,47.1628,329.991,30.9465,-12.3929,36.1861,53.6549
1980-11-28 05:20:23,1,-41.9667,20.1667,-8.13333,1.43759,1,1,81287.1,171015.0,1701,0.34411693,-4.9177675,25.937469,146.76558,44.8455,327.834,33.9274,1.50534,36.6327,53.1342
1980-11-28 05:23:05,1,-37.9,17.9,-22.7667,0.946338,1,1,89825.7,176087.0,1701,0.34409761,-4.9166679,25.923828,146.77538,44.697,327.56,21.1629,-19.1009,38.5086,53.9165
1980-11-28 05:25:47,1,-31.5,26.2333,-23.9667,1.50037,1,1,88156.7,169955.0,1701,0.3440848,-4.9159336,25.903015,146.78191,44.2154,353.155,46.6287,-33.7332,38.1492,52.9693
1980-11-28 05:31:11,1,-32.125,22.1,-22.4,3.04087,1,1,91429.3,206492.0,1701,0.34404629,-4.9137325,25.875732,146.8015,51.0935,338.043,25.4177,-31.4562,38.8509,58.3861
1980-11-28 05:33:53,1,-26.8333,26.7,-19.1333,5.2812,1,1,98920.0,201357.0,1701,0.34403342,-4.9129992,25.854919,146.80803,40.1564,358.806,40.404,-50.4058,40.411,57.6556
1980-11-28 05:36:35,1,-35.775,24.5,-1.35,2.46462,1,1,95026.8,163013.0,1701,0.34401417,-4.9118986,25.841248,146.81781,47.2365,332.777,37.8525,24.738,39.6078,51.8763
1980-11-28 05:39:17,1,-31.475,30.775,-1.1,0.733996,1,1,94122.3,141807.0,1701,0.34399492,-4.9107981,25.827606,146.82761,43.8836,340.622,54.3872,27.7186,39.4189,48.3846
1980-11-28 05:41:59,1,-31.925,28.9,-12.475,1.69078,1,1,92966.0,139224.0,1701,0.3439821,-4.9100647,25.806793,146.83414,43.5256,346.812,55.1425,-14.0675,39.176,47.9418
1980-11-28 05:44:41,1,-32.2667,29.7667,-2.83333,0.64291,1,1,86862.5,148761.0,1701,0.34396285,-4.9089642,25.793152,146.84393,43.6565,336.82,52.2386,15.5419,37.8681,49.5568
1980-11-28 05:47:23,1,-27.6667,30.6667,12.1333,3.64143,1,1,98084.5,132735.0,1701,0.3439436,-4.9078636,25.77951,146.85373,38.5497,354.717,59.471,45.4783,40.24,46.8112
1980-11-28 05:50:05,-1,nan,nan,nan,nan,1,4,nan,nan,1701,0.34392434,-4.9067631,25.761963,146.86353,nan,nan,nan,nan,nan,nan
1980-11-28 05:52:47,1,-29.5,27.4333,11.4,6.45669,1,1,96498.7,136313.0,1701,0.34391147,-4.9060287,25.745056,146.87006,40.8915,364.232,53.1017,79.0262,39.9134,47.438
1980-11-28 05:55:29,1,-27.6,32.3,8.63333,1.39603,1,1,105468.0,152627.0,1701,0.34389222,-4.9049292,25.731415,146.87985,46.988,363.527,60.8019,71.9419,41.7271,50.1966
1980-11-28 05:58:11,1,-38.15,16.575,7.375,3.46284,1,1,88492.6,148192.0,1701,0.34387296,-4.9038286,25.713867,146.88965,45.137,320.388,16.269,28.0571,38.2218,49.4619
1980-11-28 06:00:53,1,-36.325,19.075,-13.6,1.76033,1,1,67981.6,124513.0,1701,0.34386009,-4.9030943,25.69696,146.89618,34.3225,348.471,61.1215,21.9044,33.5007,45.3383
1980-11-28 06:03:35,1,-39.5,2.75,-18.1,1.34443,1,1,74919.3,137367.0,1701,0.34384096,-4.9019871,25.68335,146.90599,38.6772,327.199,4.45033,-24.947,35.1686,47.6211
1980-11-28 06:06:17,1,-32.0333,-4.33333,-27.5667,4.89694,1,1,112571.0,158086.0,1701,0.34382176,-4.9008808,25.665833,146.91582,48.0513,350.143,37.2446,-39.0702,43.1094,51.0864
1980-11-28 06:08:59,1,-37.0,21.4667,-10.1,1.49295,1,1,96859.9,156051.0,1701,0.34380895,-4.9001417,25.648926,146.92236,46.1319,327.02,42.1388,0.748537,39.988,50.7565
1980-11-28 06:11:41,1,-36.6,10.7667,-24.1667,0.681502,1,1,89549.2,149684.0,1701,0.34378982,-4.8990345,25.635315,146.93219,45.6123,328.992,13.7097,-25.9617,38.4493,49.7102
1980-11-28 06:14:23,1,-34.0,12.825,-27.95,1.70129,1,1,82781.8,147182.0,1701,0.34377062,-4.8979282,25.617798,146.94202,44.6973,334.518,24.4283,-30.2386,36.9679,49.2931
1980-11-28 06:17:05,1,-37.425,9.725,-23.725,1.85084,1,1,93565.6,138385.0,1701,0.34375143,-4.896821,25.604187,146.95183,44.5707,327.115,13.4671,-15.7529,39.3021,47.7972
1980-11-28 06:19:47,1,-39.85,-1.11022e-16,-21.0,2.57827,1,1,100879.0,132278.0,1701,0.34373868,-4.8960829,25.58728,146.95837,44.623,323.791,-7.96084,-11.8843,40.8092,46.7307
1980-11-28 06:22:29,1,-37.675,-0.65,-25.45,2.1452,1,1,99246.9,136807.0,1701,0.34371948,-4.8949757,25.573669,146.9682,42.385,324.62,-30.3099,-15.0399,40.4777,47.5238
1980-11-28 06:25:11,1,-37.5,-12.875,-20.075,1.44525,1,1,97867.1,128694.0,1701,0.34370029,-4.8938684,25.556152,146.97803,40.4354,331.595,-47.1084,-21.5424,40.1954,46.0933
1980-11-28 06:27:53,1,-39.8333,-12.1,-14.5667,0.968389,1,1,93242.8,145438.0,1701,0.34368753,-4.8931303,25.539276,146.98457,47.9905,325.849,-43.8377,-4.29148,39.2343,49.0
1980-11-28 06:30:35,1,-33.7,8.9,-27.1667,4.5646,1,1,119327.0,136193.0,1701,0.34366834,-4.8920231,25.525665,146.9944,44.2486,323.249,-49.9758,9.57075,44.384,47.4171
1980-11-28 06:33:17,1,-32.1,8.5,-31.5667,3.20243,1,1,83989.2,144653.0,1701,0.34364915,-4.8909159,25.508118,147.00421,46.3416,344.55,21.3174,-43.9687,37.2366,48.8677
1980-11-28 06:35:59,1,-38.625,-2.15,-21.975,1.70331,1,1,92306.7,121275.0,1701,0.34363639,-4.8901777,25.491241,147.01077,40.7296,318.977,-31.307,-11.0481,39.0368,44.745
1980-11-28 06:38:41,1,-37.15,3.1,-26.175,2.38104,1,1,83256.9,151991.0,1701,0.3436172,-4.8890705,25.477631,147.02058,47.9256,327.777,-20.9495,-28.1212,37.0739,50.0919
1980-11-28 06:41:23,1,-34.925,-0.825,-29.775,0.525,1,1,88896.5,133731.0,1701,0.34359801,-4.8879633,25.460114,147.03041,43.5661,330.885,-23.1575,-37.0821,38.309,46.9867
1980-11-28 06:44:05,1,-37.775,-4.025,-26.0,0.598957,1,1,80949.8,134935.0,1701,0.34357888,-4.8868561,25.446472,147.04022,45.1027,328.235,-27.6568,-32.6598,36.5566,47.1977
1980-11-28 06:46:47,1,-38.5,-6.35,-23.4,0.517204,1,1,83206.7,131145.0,1701,0.34356606,-4.8861179,25.429596,147.04678,44.9613,324.36,-33.3061,-19.8017,37.0627,46.5301
1980-11-28 06:49:29,1,-39.0,-5.63333,-21.7,0.418994,1,1,83235.4,128068.0,1701,0.34354687,-4.8850107,25.412079,147.05659,47.289,323.931,-31.2258,-16.2488,37.0691,45.981
1980-11-28 06:52:11,1,-36.75,-3.175,-25.3,3.68841,1,1,99011.8,125038.0,1701,0.34352773,-4.8839035,25.398468,147.06642,44.9926,321.057,-22.8729,-18.1146,40.4298,45.4338
1980-11-28 06:54:53,1,-29.4,6.3,-35.2333,1.18697,1,1,90156.6,109987.0,1701,0.34351492,-4.8831654,25.381561,147.07297,40.0657,338.528,-2.44581,-48.5725,38.5795,42.6116
1980-11-28 06:57:35,1,-33.95,3.6,-31.475,1.49979,1,1,99174.7,126409.0,1701,0.34349573,-4.8820581,25.364044,147.08279,44.2608,330.983,-8.58527,-33.8399,40.463,45.6822
1980-11-28 07:00:17,1,-37.975,-14.5,-19.275,1.95672,1,1,82778.4,140267.0,1701,0.34347659,-4.8809509,25.350433,147.09262,50.2043,323.276,-38.396,-6.44825,36.9672,48.1211
1980-11-28 07:02:59,1,-37.375,-10.625,-22.825,1.39486,1,1,91597.9,127333.0,1701,0.34346384,-4.880208,25.333557,147.09918,43.2093,323.876,-36.5251,-12.6247,38.8867,45.8488
1980-11-28 07:05:41,1,-40.275,0.525,-17.825,4.94678,1,1,80170.7,121191.0,1701,0.34344471,-4.8790941,25.316071,147.10902,43.8138,316.609,-16.0246,-2.43271,36.3803,44.7294
1980-11-28 07:08:23,1,-37.125,13.75,-22.575,2.36141,1,1,86473.2,126713.0,1701,0.34342563,-4.8779802,25.30249,147.11888,46.0823,322.55,19.1865,-8.5298,37.7832,45.737
1980-11-28 07:11:05,1,-36.6333,2.9,-25.9,2.14217,1,1,86344.3,138856.0,1701,0.34340656,-4.8768663,25.288879,147.12872,46.1423,324.208,0.0966812,-26.0591,37.755,47.8784
1980-11-28 07:13:47,1,-37.1,11.625,-23.625,1.22627,1,1,92739.3,136475.0,1701,0.3433938,-4.8761234,25.268127,147.1353,45.6383,331.075,0.222241,-27.3376,39.1282,47.4662
1980-11-28 07:16:29,1,-37.4667,12.8,-20.6667,4.17745,1,1,95219.2,123661.0,1701,0.34337473,-4.8750095,25.254517,147.14514,47.2891,322.903,9.67727,-8.58263,39.6479,45.183
1980-11-28 07:19:11,1,-34.625,24.15,-18.325,2.68351,1,1,102291.0,122088.0,1701,0.3433556,-4.8738956,25.240936,147.15498,48.744,317.132,7.02522,-3.61836,41.0938,44.8947
1980-11-28 07:21:53,1,-35.9667,25.8333,-12.1,1.75436,1,1,90011.9,113469.0,1701,0.3433429,-4.8731527,25.22406,147.16156,44.3585,329.014,37.564,3.14463,38.5485,43.2809
1980-11-28 07:24:35,1,-36.45,26.35,-5.925,1.09402,1,1,92065.4,122657.0,1701,0.34332377,-4.8720388,25.206573,147.1714,46.3309,329.674,38.5455,15.0658,38.9858,44.9991
1980-11-28 07:36:44,1,-38.1333,9.78333,-18.6167,3.2805,1,1,93524.8,111577.0,1701,0.34458601,-4.819479,24.204895,146.27911,44.6212,310.283,18.3343,-5.56181,39.2936,42.9186
1980-11-28 07:37:47,1,-40.2857,3.47143,-15.8143,1.26556,1,1,69469.5,124376.0,1701,0.34324741,-4.8675833,25.124878,147.2108,41.5968,312.197,20.0574,-5.5482,33.8653,45.3134
1980-11-28 07:37:54,1,-40.5,3.43333,-14.9333,1.66266,1,1,77016.2,117607.0,1701,0.34324104,-4.8672113,25.128143,147.21408,42.4081,315.269,30.1344,3.43896,35.6573,44.0631
1980-11-28 07:38:04,1,-40.8667,3.7,-13.2667,1.81965,1,1,81379.0,121418.0,1701,0.34323466,-4.8668404,25.131439,147.21736,44.1099,306.858,-4.88203,-3.17361,36.6534,44.7712
1980-11-28 07:39:25,1,-41.4429,4.77143,-12.5,1.05772,1,1,74462.0,119682.0,1701,0.34322828,-4.8664684,25.11908,147.22064,40.2654,302.358,-0.489468,2.24133,35.0611,44.4501
1980-11-28 07:40:46,1,-40.8,7.78333,-13.4667,1.28333,1,1,73982.0,117730.0,1701,0.3432219,-4.8660975,25.110657,147.22394,42.1058,302.274,5.69648,6.62476,34.9479,44.0861
1980-11-28 07:42:07,1,-39.7429,7.2,-16.8571,0.62499,1,1,78560.9,116383.0,1701,0.34320921,-4.8653545,25.105499,147.2305,42.2695,305.894,7.69251,-8.93166,36.0132,43.8331
1980-11-28 07:43:28,1,-39.5333,9.48333,-14.45,3.54158,1,1,89639.2,107746.0,1701,0.34320283,-4.8649836,25.097076,147.23378,41.6071,304.88,4.36255,-0.888581,38.4687,42.1754
1980-11-28 07:46:10,1,-38.0333,-0.85,-21.5333,0.766123,1,1,77726.3,109892.0,1701,0.34318376,-4.8638697,25.083466,147.24362,37.8076,313.324,-15.406,-21.6684,35.8214,42.5933
1980-11-28 07:48:51,1,-39.3,1.6,-18.0429,2.27963,1,1,96007.8,147213.0,1701,0.343171,-4.8631268,25.062714,147.2502,37.1131,330.215,-62.9483,-37.2344,39.8117,49.2981
1980-11-28 07:50:12,1,-38.5714,-5.32857,-18.8286,3.10076,1,1,77264.2,113011.0,1701,0.3431583,-4.8623838,25.057556,147.25676,40.5468,313.524,-24.315,-15.8955,35.7147,43.1935
1980-11-28 07:52:55,1,-40.45,1.0,-15.25,1.88149,1,1,71117.0,116483.0,1701,0.34314555,-4.8616409,25.04068,147.26332,40.7378,307.342,-16.1285,-4.27749,34.2645,43.852
1980-11-28 07:55:37,1,-36.9,-4.8,-21.25,1.7942,1,1,83272.6,107031.0,1701,0.34312642,-4.860527,25.0271,147.27318,39.4884,315.908,-33.3934,-18.2366,37.0774,42.0351
1980-11-28 07:56:58,1,-36.95,-5.78333,-21.9667,1.85098,1,1,68211.8,124542.0,1701,0.3431201,-4.8601561,25.01474,147.27646,39.9171,309.808,-32.6456,-22.106,33.5574,45.3435
1980-11-28 07:58:19,1,-37.0667,-5.38333,-21.2667,3.02971,1,1,81481.5,119129.0,1701,0.34310734,-4.8594131,25.009583,147.28302,40.9832,310.725,-11.0615,-16.4637,36.6765,44.3473
1980-11-28 07:59:40,-1,nan,nan,nan,nan,1,4,nan,nan,1701,0.34310097,-4.8590422,25.00116,147.2863,nan,nan,nan,nan,nan,nan
1980-11-28 08:01:01,1,-38.5,-11.1167,-15.15,1.95206,1,1,80602.3,124479.0,1701,0.34308827,-4.8582973,24.996002,147.29288,43.7489,308.559,-29.2945,-6.67538,36.478,45.3321
1980-11-28 08:03:43,1,-38.375,0.85,-19.8,1.86665,1,1,73669.6,120070.0,1701,0.34307557,-4.8575497,24.979156,147.29947,42.7868,308.078,-15.8201,-15.3815,34.874,44.522
1980-11-28 08:05:04,1,-37.6667,2.78333,-21.8,0.503598,1,1,93177.5,119355.0,1701,0.34306294,-4.8568029,24.970123,147.30605,42.9308,314.61,-13.9064,-17.3235,39.2205,44.3893
1980-11-28 08:06:25,1,-38.6667,-5.65,-19.8333,1.79265,1,1,74316.9,114210.0,1701,0.34305656,-4.8564301,24.9617,147.30934,39.7718,311.538,-23.7754,-23.4519,35.0269,43.422
1980-11-28 08:07:46,1,-38.3,-9.05,-19.8667,1.17106,1,1,81294.1,116208.0,1701,0.34305024,-4.8560562,24.953278,147.31264,42.6156,315.162,-24.952,-5.18217,36.6343,43.8001
1980-11-28 08:09:06,1,-39.1,-10.2,-17.6571,0.560248,1,1,85275.8,113377.0,1701,0.34303755,-4.8553095,24.94812,147.31921,42.6517,314.396,-31.2658,-5.16913,37.5207,43.2633
1980-11-28 09:21:51,-1,nan,nan,nan,nan,1,3,nan,nan,1701,0.34258175,-4.8283701,24.52124,147.5564,nan,306.692,-4.79719,-15.2408,nan,nan
1980-11-28 09:24:33,1,-34.5857,-2.28571,-24.5857,3.03752,1,1,81875.2,125227.0,1701,0.34256279,-4.8272429,24.503815,147.5663,43.3383,317.369,-12.2601,-34.326,36.765,45.4682
1980-11-28 09:25:54,1,-33.1667,-12.0,-21.4833,0.804329,1,1,89557.4,127285.0,1701,0.34255648,-4.8268661,24.495392,147.5696,40.4254,318.577,-39.7015,-18.0663,38.4511,45.8402
1980-11-28 09:29:58,1,-34.1571,4.64286,-23.1,2.50754,1,1,80330.0,116376.0,1701,0.34253126,-4.8253632,24.473419,147.58279,38.1907,315.072,-3.4222,-34.5936,36.4164,43.8318
1980-11-28 09:31:19,1,-33.7833,0.866667,-23.1,1.2153,1,1,74058.8,116566.0,1701,0.34251863,-4.8246117,24.468323,147.5894,41.3599,314.971,-19.8133,-25.8057,34.966,43.8676
1980-11-28 09:32:40,1,-35.4429,2.6,-20.9714,1.52181,1,1,87221.8,125978.0,1701,0.34251231,-4.8242359,24.455994,147.5927,42.1583,314.325,-14.3402,-29.9734,37.9464,45.6042
1980-11-28 09:34:01,1,-34.75,5.56667,-20.7833,1.47403,1,1,63415.6,134714.0,1701,0.34249973,-4.8234844,24.450867,147.5993,41.584,314.386,-5.86986,-30.3504,32.3561,47.159
1980-11-28 09:38:04,1,-33.1333,16.1333,-19.8667,0.658281,1,1,89180.4,112124.0,1701,0.34380546,-4.7740445,23.491333,146.67493,41.8235,315.988,12.7949,-25.9628,38.3701,43.0236
1980-11-28 09:40:36,1,-32.3833,13.55,-24.0,1.91326,1,1,75992.1,124293.0,1701,0.34246182,-4.8212299,24.412079,147.61911,43.3149,318.292,-1.04958,-36.7384,35.4195,45.2983
1980-11-28 09:40:37,1,-32.3833,13.55,-24.0,1.91326,1,1,84451.0,123991.0,1701,0.34246814,-4.8216057,24.408783,147.6158,41.7248,319.333,4.40753,-38.9347,37.3388,45.2431
1980-11-28 09:40:46,1,-32.8,14.0714,-23.0143,1.93697,1,1,80781.9,109108.0,1701,0.34246182,-4.8212299,24.408173,147.61911,41.5045,320.214,5.80937,-40.0603,36.5187,42.4411
1980-11-28 09:42:07,1,-29.5333,22.2833,-20.1667,1.1471,1,1,79844.1,124802.0,1701,0.34244919,-4.8204784,24.403046,147.6257,44.1228,329.471,35.4515,-28.2479,36.3061,45.391
1980-11-28 09:43:28,1,-27.1833,25.7833,-19.8167,1.6973,1,1,84366.8,165898.0,1701,0.34244293,-4.8201027,24.394623,147.629,50.4609,329.203,23.8893,-39.6251,37.3202,52.3334
1980-11-28 09:44:49,1,-29.9429,20.9143,-20.9,1.82309,1,1,81140.8,113249.0,1701,0.34243661,-4.8197269,24.38623,147.63231,46.2396,326.43,25.3544,-35.5879,36.5997,43.239
1980-11-28 09:46:10,1,-32.6333,19.6,-15.3167,3.61805,1,1,83207.8,142588.0,1701,0.34242398,-4.8189754,24.381104,147.6389,45.6245,314.893,11.2012,-33.1521,37.063,48.5176
1980-11-28 09:47:31,1,-35.6,13.1167,-14.5167,1.55546,1,1,68900.2,154999.0,1701,0.34241766,-4.8185997,24.372681,147.64221,41.7171,314.157,21.4232,-17.6359,33.7262,50.5851
1980-11-28 09:48:52,1,-36.05,10.95,-15.3667,2.72285,1,1,73864.3,135352.0,1701,0.34241134,-4.818224,24.364258,147.64551,42.0386,310.955,-4.76814,-25.9602,34.9201,47.2704
1980-11-28 09:50:13,1,-36.35,14.45,-15.25,1.84413,1,1,74402.8,128166.0,1701,0.3423987,-4.8174725,24.355255,147.65211,42.0522,311.583,13.1637,-18.8857,35.0471,45.9985
1980-11-28 09:51:34,1,-29.2167,24.8,-7.25,6.88795,1,1,89137.9,145223.0,1701,0.34239239,-4.8170967,24.346832,147.65541,40.9011,312.097,8.6528,1.81412,38.3609,48.9639
1980-11-28 09:52:55,1,-24.7,30.5571,-3.37143,4.83634,1,1,64088.3,97408.0,1701,0.34238613,-4.81672,24.338409,147.65871,46.6557,289.422,-54.6789,-38.3847,32.5273,40.101
1980-11-28 09:54:15,1,-31.4286,21.6,-5.6,6.6819,1,1,76216.8,141957.0,1701,0.34237349,-4.8159695,24.333282,147.66531,42.5744,331.51,39.8128,11.8135,35.4718,48.4101